Total_Precipitation_Accumulation
1.40 0.96 1.63 1.56 1.40 1.19 1.13 1.17 1.20 1.20 1.20 1.14 1.02 0.92 0.82 0.74 0.69 0.67 0.61 0.55 0.54 0.57 0.63 0.66 0.64 0.63 0.57 0.56 0.58 0.63 0.64 0.62 0.59 0.48 0.45 0.49 0.55 0.64 0.81 0.95 1.23 1.63 1.19
0.89 0.73 1.42 1.62 1.48 1.33 1.27 1.17 1.11 1.12 1.11 1.04 0.97 0.87 0.78 0.73 0.68 0.64 0.60 0.55 0.53 0.53 0.58 0.62 0.64 0.66 0.65 0.64 0.71 0.76 0.72 0.67 0.70 0.67 0.74 0.84 0.72 0.70 0.72 0.87 1.31 1.58 1.16
0.64 0.59 0.96 1.52 1.52 1.41 1.34 1.22 1.07 1.04 0.95 0.87 0.86 0.76 0.72 0.68 0.62 0.58 0.57 0.57 0.53 0.51 0.53 0.58 0.65 0.69 0.69 0.74 0.79 0.82 0.81 0.79 0.79 0.81 1.21 1.75 1.30 0.89 0.85 0.91 0.99 1.04 1.03
0.49 0.51 0.76 1.29 1.34 1.33 1.32 1.13 1.03 0.96 0.87 0.85 0.83 0.77 0.75 0.70 0.63 0.59 0.60 0.55 0.51 0.52 0.57 0.60 0.65 0.72 0.74 0.76 0.74 0.72 0.75 0.81 0.91 0.90 1.29 1.74 1.71 1.25 1.05 1.03 0.93 0.95 1.06
0.49 0.58 0.94 1.30 1.28 1.25 1.16 1.04 1.04 0.94 0.83 0.83 0.82 0.79 0.79 0.74 0.70 0.62 0.61 0.59 0.56 0.59 0.63 0.63 0.66 0.70 0.75 0.77 0.74 0.70 0.74 0.94 0.92 0.87 1.14 1.44 1.82 1.46 1.13 1.12 1.02 1.00 1.10
0.67 0.65 0.81 1.06 1.12 1.12 0.95 0.89 0.95 0.89 0.84 0.77 0.72 0.72 0.72 0.70 0.70 0.66 0.67 0.67 0.64 0.63 0.68 0.72 0.75 0.77 0.78 0.78 0.75 0.80 0.90 0.95 0.86 1.05 1.21 1.43 1.69 1.42 1.09 1.03 1.10 1.17 1.26
0.66 0.59 0.62 0.93 0.97 0.96 0.88 0.88 0.97 0.89 0.83 0.72 0.67 0.72 0.74 0.72 0.70 0.70 0.73 0.69 0.66 0.63 0.66 0.73 0.77 0.78 0.74 0.75 0.76 0.79 0.87 0.85 0.93 1.16 1.23 1.42 1.41 1.26 1.06 0.98 1.13 1.21 1.30
0.82 0.68 0.65 0.92 0.95 0.91 0.90 0.89 0.95 0.98 0.86 0.74 0.69 0.69 0.67 0.67 0.66 0.67 0.67 0.68 0.67 0.65 0.70 0.72 0.73 0.71 0.64 0.66 0.68 0.68 0.79 0.78 0.80 0.98 1.11 1.34 1.37 1.26 1.00 0.95 1.04 1.15 1.28
1.12 1.01 0.92 0.91 0.85 0.88 0.93 0.88 1.03 1.16 1.01 0.83 0.74 0.72 0.65 0.63 0.61 0.61 0.61 0.66 0.65 0.67 0.68 0.68 0.71 0.70 0.67 0.65 0.65 0.70 0.81 0.78 0.73 0.88 0.91 1.22 1.39 1.30 1.10 1.00 1.01 1.16 1.29
1.11 1.04 1.03 1.09 1.06 1.05 1.05 1.11 1.23 1.55 1.43 1.07 0.86 0.74 0.70 0.63 0.61 0.64 0.60 0.62 0.69 0.71 0.73 0.76 0.76 0.76 0.79 0.73 0.70 0.77 0.82 0.67 0.67 0.69 0.78 1.00 1.42 1.34 1.12 0.99 0.94 0.99 1.10
0.87 0.89 0.94 0.98 0.99 1.02 0.98 1.14 1.40 1.69 1.76 1.41 1.13 0.97 0.81 0.57 0.59 0.67 0.61 0.72 0.78 0.81 0.84 0.91 0.92 0.87 0.88 0.78 0.77 0.79 0.68 0.51 0.73 0.78 0.83 1.04 1.35 1.35 1.09 0.86 0.79 0.85 0.88
0.66 0.61 0.61 0.64 0.69 0.73 0.78 1.05 1.28 1.34 1.53 1.32 1.28 1.14 0.99 0.92 0.87 0.69 0.65 0.81 0.90 0.91 0.89 0.97 1.02 0.87 0.74 0.61 0.64 0.67 0.49 0.48 0.66 0.71 0.70 1.14 1.49 1.46 1.15 0.92 0.82 0.83 0.80
0.61 0.55 0.47 0.48 0.50 0.55 0.69 0.90 1.11 1.24 1.40 1.41 1.39 1.33 1.33 1.27 0.94 0.78 0.85 0.89 0.91 0.91 0.80 0.85 0.86 0.67 0.55 0.52 0.57 0.52 0.45 0.49 0.61 0.69 0.80 1.17 1.53 1.54 1.22 0.99 0.94 0.90 0.88
0.54 0.60 0.52 0.38 0.38 0.39 0.48 0.66 0.87 1.07 1.26 1.31 1.14 1.06 1.19 1.21 1.01 0.88 1.01 1.10 1.08 1.04 1.03 1.03 0.94 0.78 0.60 0.55 0.55 0.55 0.51 0.58 0.66 0.72 0.86 0.95 1.33 1.49 1.39 1.17 1.10 1.01 1.02
0.54 0.59 0.60 0.50 0.41 0.39 0.44 0.52 0.58 0.87 1.05 1.20 1.25 1.03 1.15 1.19 1.12 0.99 0.94 1.11 1.07 1.07 1.08 1.08 1.04 0.93 0.82 0.70 0.67 0.62 0.68 0.68 0.67 0.65 0.80 0.82 1.03 1.34 1.47 1.40 1.35 1.18 1.21
0.49 0.53 0.56 0.58 0.55 0.50 0.49 0.51 0.51 0.56 0.67 0.79 0.76 0.73 0.92 1.04 1.01 1.01 0.88 0.94 1.01 1.12 1.28 1.28 1.11 1.03 0.96 0.86 0.86 0.83 0.81 0.78 0.77 0.67 0.76 0.82 0.75 0.87 1.13 1.43 1.57 1.44 1.38
0.43 0.46 0.49 0.55 0.61 0.62 0.63 0.71 0.64 0.59 0.64 0.64 0.60 0.61 0.72 0.83 0.86 0.98 0.96 0.93 0.95 1.13 1.32 1.40 1.29 1.19 1.03 0.97 0.96 0.94 0.85 0.89 0.88 0.78 0.81 0.90 0.74 0.67 0.87 1.26 1.57 1.63 1.56
0.39 0.38 0.40 0.43 0.48 0.53 0.60 0.68 0.73 0.73 0.75 0.71 0.74 0.70 0.66 0.80 0.92 1.04 1.08 1.00 0.99 1.16 1.33 1.46 1.52 1.49 1.36 1.27 1.19 1.08 1.01 1.11 1.02 0.91 0.90 0.93 0.96 0.82 0.79 0.94 1.22 1.48 1.66
0.37 0.33 0.31 0.32 0.32 0.35 0.42 0.54 0.65 0.72 0.80 0.87 0.88 0.87 0.85 0.89 0.93 1.06 1.22 1.24 1.22 1.30 1.36 1.36 1.45 1.43 1.45 1.44 1.29 1.24 1.16 1.20 1.20 1.06 1.05 1.07 1.08 1.07 0.95 0.79 0.90 0.95 1.29
0.32 0.31 0.30 0.31 0.30 0.27 0.31 0.45 0.56 0.63 0.71 0.87 0.94 1.01 1.27 1.37 1.15 1.12 1.23 1.25 1.29 1.43 1.45 1.56 1.72 1.61 1.50 1.57 1.47 1.36 1.28 1.21 1.16 1.19 1.22 1.24 1.23 1.15 1.13 0.98 0.98 0.79 0.87
0.17 0.16 0.19 0.24 0.31 0.29 0.26 0.33 0.44 0.53 0.67 0.81 0.98 1.04 1.28 1.38 1.29 1.30 1.31 1.30 1.32 1.38 1.42 1.60 1.92 1.87 1.68 1.60 1.77 1.71 1.54 1.35 1.25 1.24 1.27 1.41 1.43 1.29 1.28 1.32 1.20 1.00 0.81
0.10 0.09 0.12 0.16 0.25 0.32 0.36 0.41 0.53 0.71 0.83 0.93 1.06 1.13 1.25 1.27 1.27 1.20 1.35 1.44 1.39 1.47 1.55 1.71 1.96 2.10 1.88 1.71 2.00 2.35 2.08 1.78 1.42 1.25 1.28 1.28 1.39 1.41 1.34 1.24 1.18 1.13 0.99
0.06 0.07 0.12 0.20 0.33 0.50 0.66 0.88 1.13 1.41 1.53 1.42 1.27 1.35 1.47 1.55 1.52 1.45 1.51 1.65 1.56 1.57 1.63 1.68 1.74 2.12 2.22 2.02 1.99 2.45 2.27 2.05 1.95 1.50 1.22 1.15 1.35 1.47 1.49 1.38 1.25 1.28 1.23
0.14 0.20 0.29 0.41 0.57 0.74 0.95 1.17 1.43 1.66 1.83 1.84 1.86 1.90 1.88 1.83 1.73 1.62 1.60 1.66 1.66 1.71 1.66 1.54 1.67 2.03 2.42 2.41 2.23 2.04 1.88 1.79 2.00 1.87 1.38 1.15 1.25 1.39 1.56 1.48 1.39 1.38 1.36
0.30 0.43 0.54 0.76 0.93 1.07 1.13 1.23 1.45 1.56 1.63 1.74 1.88 1.93 1.93 1.85 1.73 1.60 1.52 1.57 1.64 1.73 1.73 1.77 1.91 2.17 2.41 2.58 2.51 2.24 1.97 1.76 1.48 1.65 1.65 1.45 1.25 1.20 1.27 1.39 1.47 1.41 1.36
0.58 0.82 0.97 1.07 1.16 1.16 1.14 1.16 1.30 1.44 1.52 1.60 1.73 1.79 1.73 1.60 1.56 1.52 1.50 1.46 1.42 1.50 1.61 1.76 1.99 2.12 2.29 2.49 2.49 2.21 2.03 1.88 1.71 1.64 1.51 1.57 1.56 1.30 1.15 1.14 1.23 1.28 1.30